Location: Frydek-Mistek
(49.6830°N, 18.3330°E)
Time: 10:20:43
(UTC+02:00)

Courier 1B Rocket - All Passes

Search period start: 26 August 2016 00:00
Search period end: 05 September 2016 00:00
Orbit: 920 x 1202 km, 28.2° (Epoch: 24 August)

Date Brightness Start Highest point End Pass type
(mag) Time Alt. Az. Time Alt. Az. Time Alt. Az.
29 Aug - 18:03:32 10° SSW 18:04:53 11° S 18:06:14 10° S daylight
30 Aug - 17:02:36 10° SSW 17:04:19 11° S 17:06:00 10° SSE daylight
31 Aug - 16:02:20 10° S 16:03:43 11° S 16:05:04 10° SSE daylight
31 Aug - 17:54:26 10° SSW 17:55:42 11° S 17:56:58 10° S daylight
01 Sep - 16:52:51 10° SSW 16:55:07 12° S 16:57:21 10° SSE daylight
02 Sep - 15:51:56 10° SSW 15:54:30 12° S 15:57:00 10° SSE daylight
03 Sep - 14:51:30 10° S 14:53:51 12° S 14:56:10 10° SSE daylight
03 Sep - 16:43:41 10° SSW 16:45:54 11° S 16:48:05 10° S daylight
04 Sep - 13:51:54 10° S 13:53:11 10° SSE 13:54:27 10° SSE daylight
04 Sep - 15:42:19 10° SSW 15:45:16 13° S 15:48:08 10° SSE daylight
